Location: ?????
(55.8833°N, 37.6500°E)
Time: 23:20:16
(UTC+00:00)

Cosmos 1898 Rocket - Pass Details

Date: 27 February 2020
Orbit: 754 x 783 km, 74.0° (Epoch: 05 April)

Event Time Altitude Azimuth Distance (km) Brightness Sun altitude
Rises 15:33:40 0° 332° (NNW) 3,222 7.0 -5.7°
Reaches altitude 10° 15:36:04 10° 335° (NNW) 2,293 6.2 -6.1°
Maximum altitude 15:41:15 66° 58° (ENE) 829 3.5 -6.8°
Drops below altitude 10° 15:46:24 10° 141° (SE) 2,285 5.6 -7.5°
Sets 15:48:47 0° 144° (SE) 3,209 6.4 -7.8°
